Regional Weather Roundup
Issued by NWS

Home | Current Version | Previous Version | Text Only | Print | Product List | Glossary Off
Versions: 1 2 3 4 5 6 7 8 9 10 11 12 13 14 15 16 17 18 19 20 21 22 23 24 25 26 27 28 29 30 31 32 33 34 35 36 37 38 39 40 41 42 43 44 45 46 47 48 49 50

000
ASUS43 KMKX 202111
RWRWI

WISCONSIN REGIONAL WEATHER ROUNDUP
NATIONAL WEATHER SERVICE MILWAUKEE/SULLIVAN WI
400 PM CDT MON OCT 20 2014

NOTE: "FAIR" INDICATES FEW OR NO CLOUDS BELOW 12,000 FEET WITH NO
SIGNIFICANT WEATHER AND/OR OBSTRUCTIONS TO VISIBILITY.

WIZ001-002-006>008-014>016-023>028-202200-
NORTHWEST WISCONSIN

CITY           SKY/WX    TMP DP  RH WIND       PRES   REMARKS
SUPERIOR ARPT  CLOUDY    51  40  65 N10       30.01S
ASHLAND        CLOUDY    53  39  59 N10       30.00R
HAYWARD        CLOUDY    52  38  58 NW8       29.99R
SIREN          MOSUNNY   55  39  55 N9        30.00R
CUMBERLAND     CLOUDY    52  37  58 N10       29.98S
RICE LAKE      CLOUDY    53  40  61 N8        30.00R
CHETEK         CLOUDY    53  41  63 N9        29.99R
LADYSMITH      CLOUDY    53  40  60 NW8       29.99R
EAU CLAIRE     CLOUDY    57  39  51 N10       29.97R
MENOMONIE      MOSUNNY   58  40  51 N12       29.97S
NEW RICHMOND   SUNNY     59  39  47 N6        29.99R
OSCEOLA        SUNNY     59  41  51 NW8       30.01R
$$

WIZ003>005-009-010-017-018-202200-
NORTH CENTRAL WISCONSIN

CITY           SKY/WX    TMP DP  RH WIND       PRES   REMARKS
MANITOWISH WTR CLOUDY    46  41  81 N7        29.96R
ARBOR VITAE    CLOUDY    47  42  82 N10       29.96R
WOODRUFF       CLOUDY    47  42  82 N10       29.96R
RHINELANDER    CLOUDY    45  41  86 VRB5      29.95R
EAGLE RIVER    CLOUDY    46  41  83 N6        29.94R
LAND O LAKES   RAIN      45  42  89 N12       29.96R
PHILLIPS       CLOUDY    49  40  71 N3        29.96R
TOMAHAWK       CLOUDY    48  40  75 N6        29.96R
MEDFORD        CLOUDY    49  39  69 N7        29.95S
MERRILL        CLOUDY    48  41  76 N10       29.95R
$$

WIZ029-030-035-036-043>047-202200-
CENTRAL WISCONSIN

CITY           SKY/WX    TMP DP  RH WIND       PRES   REMARKS
WAUSAU         CLOUDY    50  40  68 NW10      29.93R
MOSINEE        CLOUDY    48  43  81 NW12      29.96R
MARSHFIELD     CLOUDY    53  40  61 N8        29.95R
STEVENS POINT  CLOUDY    50  40  67 NW12      29.95R
WAUPACA        CLOUDY    54  45  71 NW6       29.93S
WAUTOMA        CLOUDY    54  43  66 N6        29.94R
WISC RAPIDS    CLOUDY    55  39  54 N15       29.96R
CAMP DOUGLAS   PTSUNNY   57  41  54 N10       29.95R
$$

WIZ011>013-019>022-031-037>040-048>050-202200-
NORTHEAST WISCONSIN

CITY           SKY/WX    TMP DP  RH WIND       PRES   REMARKS
ANTIGO         CLOUDY    47  41  77 NW14      29.93R
SHAWANO        CLOUDY    54  43  65 NW7       29.92R
OCONTO         CLOUDY    49  45  85 NW5       29.91R
STURGEON BAY   CLOUDY    52  43  71 NW14      29.90R
GREEN BAY      CLOUDY    54  41  61 N9        29.91R
MANITOWOC      CLOUDY    53  43  68 N14       29.90R
APPLETON       CLOUDY    52  41  66 NW13      29.92R
CLINTONVILLE   CLOUDY    52  43  71 NW7       29.92S
OSHKOSH        CLOUDY    53  44  71 NW14      29.92R
$$

WIZ032>034-041-042-053>061-202200-
SOUTHWEST WISCONSIN

CITY           SKY/WX    TMP DP  RH WIND       PRES   REMARKS
LA CROSSE      SUNNY     65  42  43 N13       29.93R
SPARTA         MOSUNNY   60  37  42 N10       29.95R
VIROQUA        MOSUNNY   61  41  48 N12       29.94R
BOSCOBEL       MOSUNNY   66  41  40 NW10G20   29.93R
PRAIRIE DU CHI MOSUNNY   65  40  39 NW8       29.92R
PLATTEVILLE    PTSUNNY   63  42  45 N10G17    29.93R
$$

WIZ056-057-062-063-064-067-068-202200-
SOUTH CENTRAL WISCONSIN

CITY           SKY/WX    TMP DP  RH WIND       PRES   REMARKS
REEDSBURG      CLOUDY    58  41  53 N8        29.93R
BARABOO/DELLS  CLOUDY    57  39  50 N12       29.93R
LONE ROCK      MOSUNNY   67  39  35 N14       29.92R
MINERAL POINT  MOSUNNY   63  37  39 NW9       29.92R
MADISON        CLOUDY    57  41  55 N10       29.93R
MIDDLETON      PTSUNNY   58  40  50 N12       29.93R
WATERTOWN      CLOUDY    54  41  61 N9        29.92R
MONROE         PTSUNNY   63  43  48 N12G20    29.90S
JANESVILLE     PTSUNNY   63  39  42 N14       29.90R
$$

WIZ051-052-058>065-066-070>072-202200-
SOUTHEAST WISCONSIN

CITY           SKY/WX    TMP DP  RH WIND       PRES   REMARKS
MILWAUKEE      CLOUDY    55  42  61 N14       29.90R
WAUKESHA       NOT AVBL
MILWAUKEE/TIMM CLOUDY    54  43  66 NW12      29.91R
RACINE         CLOUDY    53  46  77 N8        29.91R
BURLINGTON     CLOUDY    54  41  61 NW12G22   29.91R
KENOSHA        CLOUDY    55  45  68 N6        29.90R
FOND DU LAC    CLOUDY    53  43  68 NW13      29.92R
SHEBOYGAN      CLOUDY    53  43  68 NW8       29.90R
WEST BEND      CLOUDY    52  41  66 NW9       29.91R
JUNEAU         CLOUDY    51  43  73 N10       29.94R
$$

LSZ147-162-202200-
LAKE SUPERIOR

STATION/POSITION TIME  TEMP    WIND        PRES    WAVE
                       AIR SEA DIR/SP/G            HT/PER
                 (UTC) (F)     (DEG/KT/KT) (MB)    (FT/S)
W MID LAKE BUOY  2050   47 47  350/  4/  4 1015.6R   1
DEVILS ISLAND    2100   49     340/ 10/ 11 1016.3R
PORT WING        2000   51     360/  4/  6 1015.9R
SAXON HARBOR     2000   51      20/  5/  6 1015.2R
$$

LMZ867-665-643>646-202200-
LAKE MICHIGAN

STATION/POSITION TIME  TEMP    WIND        PRES    WAVE
                       AIR SEA DIR/SP/G            HT/PER
                 (UTC) (F)     (DEG/KT/KT) (MB)    (FT/S)
CHAMBERS ISLAND  2000   51     310/ 12/ 16 1011.9R
N MID LAKE BUOY  2050   48 51  340/ 19/ 23 1011.5R   3/ 4
NORTHPORT PIER   2000   50     330/ 15/ 21 1011.5R
KEWAUNEE LAKESHO 2000   52     340/  7/ 11 1011.1R
SHEBOYGAN LAKESH 2100   53 51  320/ 10/ 12 1012.9R
PORT WASHINGTON  2000   55     320/  6/ 10 1012.5
ATWATER BUOY     2100   54     330/ 12/ 14 1013.6R
MILWAUKEE LAKESH 2000   55     320/ 10/ 15   N/A
S MID LAKE BUOY  2050   53 55  340/ 17/ 21 1011.6R   3/ 4
KENOSHA   LAKESH 2100   53      20/ 14/ 17 1012.2R
$$

TC  - TEMPERATURE IN CELSIUS
VSB - VISIBILITY IN STATUTE MILES
WCI - WIND CHILL INDEX
HX  - HEAT INDEX




USA.gov is the U.S. government's official web portal to all federal, state and local government web resources and services.